INTELSAT 33E DEB, 64403

Orbit data source: Space-Track

INTELSAT 33E DEB, 64403 is space debris in GEO originally from a launch on Wed, 24 Aug 2016 UTC launched from the French Guiana (FRGUI). Debris objects in space refer to the collection of defunct objects orbiting the Earth. Examples of debris include non-operational satellites, rocket bodies, and fragments generated from explosions, collisions, or faulty payload assembly.

Not visible in the next 10 days
Identifier
64403, 2016-053AH
Orbit
GEO
Country
Flag of USUS / ITSO
Related business
Manufacturer
Boeing/ES
Mission
Spacecraft
Bus & Motor
Unknown
Mass
Unknown
Launch date (UTC)
2016-08-24 (10 years ago)
Launch vehicle
Unknown
Launch site
French Guiana (FRGUI)
Object type
Payload
Rocket body
Debris
Shape & HBR
Unknown shape, 1.1 m
Radar Cross Section
RCS unknown

Expand to show TLE details & history
Last TLE update: 1 day ago

TLE from 1 day ago
0 INTELSAT 33E DEB
1 64403U 16053AH  26256.92828786 -.00000357  00000-0  00000-0 0  9999
2 64403   1.6312  67.2203 0055566 351.3127   9.4034  1.00725921  6857
Epoch: 2026-09-13T22:16Z
TLE epoch observation values (Epoch: 2026-09-13T22:16:44.071Z)
Latitude
-0.00002°
Longitude
100.93702°
Altitude
35,429.721 km
Speed
3.096 km/s
True Right ascension
04h 32m 08s
True Declination
0° 00' 00"
Sunlit
Object was in daylight at epoch
Visualization orbit readout
Latitude
Unknown
Longitude
Unknown
Altitude
Unknown
Speed
Unknown
Apparent Right ascension
Unknown
Apparent Declination
Unknown
Sunlit
N/A
Visualization observer readout
Local Sidereal Time
01:02:40
Azimuth
Unknown
Elevation
Unknown
Doppler factor
Unknown
Orbital elements
Apogee altitude
35,894.429 km
Perigee altitude
35,427.241 km
Semi-major axis
42,038.972 km
Eccentricity
0.00556
Inclination
1.6312°
RAAN
67.2203°
Arg. of periapsis
351.3127°
True anomaly
9.50815°
Mean anomaly
9.4034°
Eccentric anomaly
9.4557°
Mean motion
0.25181 °/min
Orbital period
1,429.68 mins
BSTAR
0
Loading maneuver chart data...
Computing Atmospheric mass density...
Loading historical data...
Loading historical data...
Loading historical data...
Loading historical data...
Loading historical data...
Loading historical data...
Loading historical data...

Documentation

Showing up to 5 results
|